This demonstration page uses our WeatherBlox Daily Observations layout. Learn more.

39.29038, -76.61219

Hourly Observations for July 5, 2015

Temp ( °F °C ) Dew Point ( °F °C ) Humidity (%) Winds ( mph kmh ) Pressure ( in mb ) Visibility ( mi km ) Precip ( " mm )
12:54 am 00:54 Partly Cloudy 72 22.2 70 21.1 94 94 undefined N/A 30.01 1016 N/A 0 0
1:54 am 01:54 undefined 70 21.1 66 18.9 87 87 undefined N/A 30.04 1017 N/A 0 0
2:54 am 02:54 Mostly Cloudy 59 15.1 51 10.5 74 74 undefined N/A 29.95 1014 N/A 0 0
3:54 am 03:54 Mostly Clear 74 23.3 71 21.7 91 91 undefined N/A 30.1 1019 N/A 0 0
4:54 am 04:54 Cloudy 70 21.1 65 18.3 84 84 undefined N/A 30.07 1018 N/A 0 0
5:54 am 05:54 undefined 69 20.6 65 18.3 87 87 undefined N/A 30.09 1019 N/A 0 0
6:54 am 06:54 Mostly Cloudy 74 23.3 69 20.6 85 85 undefined N/A 30.12 1020 N/A 0 0
7:54 am 07:54 undefined 72 22.2 64 17.8 76 76 undefined N/A 30.15 1021 N/A 0 0
8:54 am 08:54 undefined 73 22.8 64 17.8 74 74 undefined N/A 30.16 1022 N/A 0 0
9:54 am 09:54 Mostly Sunny 79 26.1 69 20.6 72 72 undefined N/A 29.87 1012 N/A 0 0
10:54 am 10:54 undefined 76 24.4 64 17.8 67 67 undefined N/A 30.17 1022 N/A 0 0
11:54 am 11:54 Partly Cloudy 78 25.6 65 18.3 64 64 undefined N/A 30.16 1021 N/A 0 0
12:54 pm 12:54 undefined 78 25.6 66 18.9 67 67 undefined N/A 30.16 1021 N/A 0 0
1:54 pm 13:54 Cloudy 60 15.6 54 12.2 80 80 undefined N/A 29.93 1014 N/A 0 0
2:54 pm 14:54 undefined 80 26.7 65 18.3 60 60 undefined N/A 30.13 1020 N/A 0 0
3:54 pm 15:54 Mostly Cloudy 82 27.8 69 20.6 65 65 undefined N/A 29.95 1014 N/A 0 0
4:54 pm 16:54 Sunny 82 27.8 67 19.4 60 60 undefined N/A 30.11 1020 N/A 0 0
5:54 pm 17:54 undefined 84 28.9 28 -2.4 13 13 undefined N/A 29.86 1011 N/A 0 0
6:54 pm 18:54 Mostly Sunny 81 27.2 64 17.8 57 57 undefined N/A 30.11 1020 N/A 0 0
7:54 pm 19:54 Cloudy 50 10 49 9.4 96 96 undefined N/A 29.48 998 N/A 0.02 0.508
8:54 pm 20:54 Mostly Cloudy 77 25 71 21.7 82 82 undefined N/A 30.11 1020 N/A 0.01 0.254
9:54 pm 21:54 undefined 78 25.6 68 20 71 71 undefined N/A 30.13 1020 N/A 0 0
10:54 pm 22:54 Mostly Clear 77 25 70 21.1 79 79 undefined N/A 30.13 1020 N/A 0 0.0254
11:54 pm 23:54 undefined 77 25 71 21.7 82 82 undefined N/A 30.13 1020 N/A 0 0

Powered by AerisWeather